Tracking 31027 objects as of 19-Jul-2025
HD Live streaming from Space Station
objects crossing your sky now

STARLINK-4742

Track STARLINK-4742 now!
10-day predictions
STARLINK-4742 is classified as:


NORAD ID: 53795
Int'l Code: 2022-111Y
Perigee: 546.2 km
Apogee: 547.6 km
Inclination: 53.2 °
Period: 95.4 minutes
Semi major axis: 6917 km
RCS: Unknown
Launch date: September 11, 2022
Source: United States (US)
Launch site: AIR FORCE EASTERN TEST RANGE (AFETR)
Your satellite tracking list
COSMOS 1408 DEB
Track 1 satellite(s)




NASA's NSSDC Master Catalog

Two Line Element Set (TLE):
1 53795U 22111Y   25199.55093330 -.00000179  00000-0  68540-5 0  9996
2 53795  53.2158 244.8921 0001029  80.5411 279.5697 15.08837498158345
Source of the keplerian elements: AFSPC